Rogers City, MI

12:33 PM EDT on June 23, 2017 (GMT -0400)
Presque Isle County

Weather History for KPZQ - March, 2013

Change the Weather History Date:

Friday, March 29, 2013

  Actual Average (KAPN) Record (KAPN)
Temperature  
Mean Temperature 36 °F -  
Max Temperature 44 °F 43 °F 75 °F (1946)
Min Temperature 28 °F 26 °F -8 °F (1970)
Degree Days  
Heating Degree Days 29    
Moisture  
Dew Point 24 °F    
Average Humidity 64    
Maximum Humidity 75    
Minimum Humidity 37    
Precipitation  
Precipitation 0.00 in - - ()
Sea Level Pressure  
Sea Level Pressure 30.23 in    
Wind  
Wind Speed 6 mph (WNW)    
Max Wind Speed 13 mph    
Max Gust Speed 17 mph    
Visibility 10 miles    
Events      
Averages and records for this station are not official NWS values.
T = Trace of Precipitation, MM = Missing Value Source: NWS Daily Summary

Daily Weather History Graph

Daily Weather History Graph

Search for Another Location

Airport or City:

Trip Planner

Search our weather history database for the weather conditions in past years. The results will help you decide how hot, cold, wet, or windy it might be!

Date:

Astronomy

Mar. 29, 2013 Rise Set
Actual Time 7:20 AM EDT 7:59 PM EDT
Civil Twilight 6:51 AM EDT 8:29 PM EDT
Nautical Twilight 6:15 AM EDT 9:05 PM EDT
Astronomical Twilight 5:39 AM EDT 9:41 PM EDT
Moon 11:08 PM EDT (3/29) 8:20 AM EDT (3/29)
Length of Visible Light 13h 38m
Length of Day
12h 39m
Waning Gibbous, 93% of the Moon is Illuminated
Mar 29
Waning Gibbous
Apr 3
Last Quarter
Apr 10
New
Apr 18
First Quarter
Apr 25
Full

Hourly Weather History & Observations

Time (EDT) Temp. Windchill Dew Point Humidity Pressure Visibility Wind Dir Wind Speed Gust Speed Precip Events Conditions
12:15 AM 32.0 °F 27.5 °F 23.0 °F 69% 30.25 in 10.0 mi West 4.6 mph - N/A   Clear
12:35 AM 32.0 °F 27.5 °F 23.0 °F 69% 30.25 in 10.0 mi West 4.6 mph - N/A   Clear
12:55 AM 31.3 °F 27.9 °F 22.8 °F 71% 30.25 in 10.0 mi West 3.5 mph - N/A   Clear
1:15 AM 30.7 °F 26.0 °F 22.8 °F 72% 30.25 in 10.0 mi West 4.6 mph - N/A   Clear
1:35 AM 30.2 °F 25.4 °F 23.0 °F 75% 30.25 in 10.0 mi West 4.6 mph - N/A   Clear
1:55 AM 30.2 °F 26.7 °F 22.6 °F 73% 30.25 in 10.0 mi West 3.5 mph - N/A   Clear
2:15 AM 30.2 °F 24.3 °F 22.6 °F 73% 30.25 in 10.0 mi West 5.8 mph - N/A   Clear
2:35 AM 30.0 °F 25.2 °F 22.1 °F 72% 30.25 in 10.0 mi West 4.6 mph - N/A   Clear
2:55 AM 30.0 °F 25.2 °F 21.7 °F 71% 30.24 in 10.0 mi West 4.6 mph - N/A   Scattered Clouds
3:15 AM 29.8 °F 23.0 °F 21.2 °F 70% 30.24 in 10.0 mi West 6.9 mph - N/A   Mostly Cloudy
3:35 AM 29.7 °F 23.7 °F 21.2 °F 71% 30.24 in 10.0 mi West 5.8 mph - N/A   Scattered Clouds
3:55 AM 29.1 °F 24.1 °F 21.2 °F 72% 30.24 in 10.0 mi West 4.6 mph - N/A   Clear
4:15 AM 29.1 °F 23.0 °F 21.2 °F 72% 30.24 in 10.0 mi West 5.8 mph - N/A   Clear
4:35 AM 29.1 °F 21.3 °F 20.8 °F 71% 30.23 in 10.0 mi West 8.1 mph - N/A   Clear
4:55 AM 29.1 °F 24.1 °F 20.7 °F 71% 30.24 in 10.0 mi West 4.6 mph - N/A   Clear
5:15 AM 28.6 °F 21.5 °F 20.7 °F 72% 30.24 in 10.0 mi West 6.9 mph - N/A   Clear
5:35 AM 28.8 °F 22.6 °F 20.8 °F 72% 30.24 in 10.0 mi West 5.8 mph - N/A   Clear
5:55 AM 28.8 °F 21.7 °F 20.8 °F 72% 30.24 in 10.0 mi West 6.9 mph - N/A   Clear
6:15 AM 29.1 °F 24.1 °F 20.8 °F 71% 30.24 in 10.0 mi West 4.6 mph - N/A   Clear
6:35 AM 28.4 °F 24.6 °F 20.7 °F 73% 30.24 in 10.0 mi WNW 3.5 mph - N/A   Clear
6:55 AM 28.4 °F 22.2 °F 21.0 °F 74% 30.24 in 10.0 mi West 5.8 mph - N/A   Clear
7:15 AM 28.4 °F 21.2 °F 21.2 °F 74% 30.24 in 10.0 mi West 6.9 mph - N/A   Clear
7:35 AM 28.4 °F 22.2 °F 21.2 °F 74% 30.25 in 10.0 mi West 5.8 mph - N/A   Clear
7:55 AM 29.3 °F 24.3 °F 22.1 °F 75% 30.25 in 10.0 mi West 4.6 mph - N/A   Clear
8:15 AM 30.4 °F 22.9 °F 23.0 °F 74% 30.25 in 10.0 mi West 8.1 mph - N/A   Clear
8:35 AM 31.6 °F 25.1 °F 23.7 °F 73% 30.25 in 10.0 mi West 6.9 mph - N/A   Clear
8:55 AM 32.2 °F 24.4 °F 24.4 °F 73% 30.26 in 10.0 mi WNW 9.2 mph - N/A   Clear
9:15 AM 33.3 °F 26.4 °F 25.3 °F 73% 30.26 in 10.0 mi WNW 8.1 mph - N/A   Clear
9:35 AM 34.9 °F 29.9 °F 26.1 °F 70% 30.26 in 10.0 mi WNW 5.8 mph - N/A   Clear
9:55 AM 36.9 °F 32.2 °F 27.1 °F 68% 30.26 in 10.0 mi NW 5.8 mph - N/A   Clear
10:15 AM 38.1 °F 32.9 °F 27.1 °F 65% 30.26 in 10.0 mi WNW 6.9 mph - N/A   Clear
10:35 AM 37.6 °F 31.6 °F 28.4 °F 69% 30.26 in 10.0 mi North 8.1 mph - N/A   Clear
10:55 AM 37.6 °F 30.5 °F 28.6 °F 70% 30.26 in 10.0 mi North 10.4 mph - N/A   Clear
11:15 AM 37.4 °F 30.3 °F 28.6 °F 70% 30.26 in 10.0 mi North 10.4 mph - N/A   Clear
11:35 AM 37.9 °F 32.1 °F 28.9 °F 70% 30.26 in 10.0 mi NNW 8.1 mph - N/A   Clear
11:55 AM 38.7 °F 32.4 °F 28.8 °F 68% 30.26 in 10.0 mi North 9.2 mph - N/A   Clear
12:15 PM 38.1 °F 31.2 °F 29.5 °F 71% 30.25 in 10.0 mi NNW 10.4 mph - N/A   Clear
12:55 PM 39.2 °F 33.0 °F 29.5 °F 68% 30.25 in 10.0 mi North 9.2 mph - N/A   Clear
1:15 PM 38.7 °F 31.4 °F 30.2 °F 72% 30.24 in 10.0 mi NNW 11.5 mph - N/A   Clear
1:34 PM 38.5 °F 30.7 °F 29.7 °F 71% 30.24 in 10.0 mi North 12.7 mph 17.3 mph N/A   Clear
1:55 PM 39.4 °F 31.8 °F 29.3 °F 67% 30.24 in 10.0 mi North 12.7 mph 16.1 mph N/A   Clear
2:15 PM 40.3 °F 33.0 °F 28.6 °F 63% 30.23 in 10.0 mi NNW 12.7 mph - N/A   Clear
2:35 PM 40.1 °F 33.6 °F 29.3 °F 65% 30.23 in 10.0 mi North 10.4 mph 16.1 mph N/A   Clear
2:55 PM 41.2 °F 35.0 °F 29.3 °F 63% 30.23 in 10.0 mi NNW 10.4 mph - N/A   Clear
3:15 PM 40.5 °F 34.1 °F 28.4 °F 62% 30.22 in 10.0 mi North 10.4 mph - N/A   Clear
3:35 PM 41.9 °F 36.3 °F 27.7 °F 57% 30.22 in 10.0 mi North 9.2 mph - N/A   Clear
3:55 PM 42.8 °F 38.0 °F 26.4 °F 52% 30.22 in 10.0 mi North 8.1 mph - N/A   Clear
4:15 PM 43.5 °F 38.3 °F 25.3 °F 49% 30.21 in 10.0 mi North 9.2 mph - N/A   Clear
4:35 PM 44.4 °F 40.0 °F 25.3 °F 47% 30.21 in 10.0 mi NNW 8.1 mph - N/A   Clear
4:55 PM 44.4 °F 39.5 °F 23.9 °F 44% 30.20 in 10.0 mi NW 9.2 mph - N/A   Clear
5:15 PM 44.6 °F 40.2 °F 23.4 °F 43% 30.20 in 10.0 mi NW 8.1 mph - N/A   Clear
5:35 PM 44.6 °F 40.7 °F 21.9 °F 41% 30.20 in 10.0 mi NW 6.9 mph - N/A   Clear
5:55 PM 44.6 °F 40.7 °F 20.5 °F 38% 30.20 in 10.0 mi NW 6.9 mph - N/A   Clear
6:15 PM 44.6 °F 42.2 °F 19.8 °F 37% 30.20 in 10.0 mi North 4.6 mph - N/A   Clear
6:35 PM 43.9 °F 41.3 °F 20.3 °F 39% 30.20 in 10.0 mi North 4.6 mph - N/A   Clear
6:55 PM 43.7 °F 40.3 °F 20.7 °F 40% 30.20 in 10.0 mi North 5.8 mph - N/A   Clear
7:15 PM 42.8 °F 41.1 °F 20.1 °F 40% 30.20 in 10.0 mi NNW 3.5 mph - N/A   Clear
7:35 PM 40.5 °F 38.4 °F 21.2 °F 46% 30.20 in 10.0 mi NNW 3.5 mph - N/A   Clear
7:55 PM 40.1 °F - 19.4 °F 43% 30.20 in 10.0 mi Calm Calm - N/A   Clear
8:15 PM 39.2 °F 37.0 °F 20.3 °F 47% 30.20 in 10.0 mi NW 3.5 mph - N/A   Clear
8:35 PM 36.1 °F - 20.3 °F 53% 30.20 in 10.0 mi Calm Calm - N/A   Clear
8:55 PM 36.5 °F 33.9 °F 21.6 °F 55% 30.20 in 10.0 mi NNW 3.5 mph - N/A   Clear
9:15 PM 32.0 °F - 22.1 °F 67% 30.21 in 10.0 mi Calm Calm - N/A   Clear
9:35 PM 31.3 °F - 22.6 °F 70% 30.22 in 10.0 mi Calm Calm - N/A   Clear
9:55 PM 31.1 °F 27.7 °F 22.8 °F 71% 30.22 in 10.0 mi West 3.5 mph - N/A   Clear
10:15 PM 32.0 °F 28.7 °F 23.4 °F 70% 30.22 in 10.0 mi WNW 3.5 mph - N/A   Clear
10:34 PM 30.2 °F - 22.8 °F 74% 30.22 in 10.0 mi Calm Calm - N/A   Clear
10:55 PM 30.0 °F 25.2 °F 22.5 °F 73% 30.22 in 10.0 mi SW 4.6 mph - N/A   Clear
11:15 PM 32.0 °F 27.5 °F 20.8 °F 63% 30.21 in 10.0 mi WSW 4.6 mph - N/A   Clear
11:35 PM 32.0 °F 25.6 °F 19.6 °F 60% 30.21 in 10.0 mi WSW 6.9 mph - N/A   Clear
11:55 PM 31.8 °F 26.2 °F 19.4 °F 60% 30.20 in 10.0 mi WSW 5.8 mph - N/A   Clear